Location: Grums
(59.3529°N, 13.1129°E)
Time: 01:25:14
(UTC+01:00)

SEEDS - Pass Details

Date: 05 December 2021
Orbit: 584 x 600 km, 97.6° (Epoch: 27 January)

Event Time Altitude Azimuth Distance (km) Brightness Sun altitude
Rises 16:24:09 0° 193° (SSW) 2,822 ? -8.1°
Reaches altitude 10° 16:26:32 10° 205° (SSW) 1,922 ? -8.3°
Maximum altitude 16:30:12 29° 266° (W) 1,089 ? -8.7°
Drops below altitude 10° 16:33:53 10° 328° (NNW) 1,928 ? -9.1°
Sets 16:36:17 0° 340° (NNW) 2,831 ? -9.4°
